sat.trackr.live / text

‹ back to catalog

UNKNOWN

NORAD 81749

UNKNOWN UNKNOWN UNKNOWN

§ Identity

Operator
Country
Launch date
Launch site
Launch vehicle
Mass (kg)
RCS (m²)

External: N2YO · Heavens-Above

§ Orbital elements

Epoch: 2026-05-23T12:43:09.661152Z

Period
112.71 min
Inclination
99.6680°
Eccentricity
0.0368028
Mean motion
12.77659808 rev/d
Perigee alt
1,066.4 km
Apogee alt
1,635.3 km
Semi-major
7,729.0 km
B*
4.2200e-4
RAAN
155.2026°
Arg perigee
215.8731°
Mean anomaly
302.1126°
Rev number
58,266

§ Raw data

UNKNOWN1 81749U          26143.52997293  .00000087  00000+0  42200-3 0  99962 81749  99.6680 155.2026 0368028 215.8731 302.1126 12.77659808582669

JSON: /api/v1/satellites/81749 · /tle

For live sub-satellite position, see the globe view (requires WebGL).

§ Visibility from observer

Set your observer location to see the next 7 days of passes ≥ 10°. The values pass through the URL so the page stays shareable.

No JS? Fill the form by hand. The geolocation button needs JavaScript.